AirNav   Duncan Aviation - Near you to keep you flying
 
 1132 users online  

LL78 LZ Fairwinds Airport
Rockford, Illinois, USA

GOING TO ROCKFORD?


FAA INFORMATION EFFECTIVE 01 DECEMBER 2022

Location

FAA Identifier: LL78
Lat/Long: 42-18-42.0670N 089-09-03.3890W
42-18.701117N 089-09.056483W
42.3116853,-89.1509414
(estimated)
Elevation: 752 ft. / 229 m (estimated)
Variation: 00E (1985)
From city: 6 miles NW of ROCKFORD, IL
Time zone: UTC -6 (UTC -5 during Daylight Saving Time)
Zip code: 61101

Airport Operations

Airport use: Private use. Permission required prior to landing
Activation date: 10/1975
Control tower: no
ARTCC: CHICAGO CENTER
FSS: KANKAKEE FLIGHT SERVICE STATION
Attendance: UNATNDD
Wind indicator: no
Segmented circle: no

Airport Communications

WX ASOS at RFD (7 nm S): PHONE 815-484-6229
WX AWOS-3 at JVL (19 nm N): PHONE 608-758-1723
WX AWOS-3 at FEP (20 nm W): 120.525 (815-233-4472)

Nearby radio navigation aids

VOR radial/distance  VOR name  Freq  Var
JVLr185/14.9JANESVILLE VOR/DME114.3003E
PLLr036/26.6POLO VOR/DME111.2003E

Airport Services

Runway Information

Runway 9/27

Dimensions: 1700 x 100 ft. / 518 x 30 m
Surface: turf
RUNWAY 9  RUNWAY 27
Traffic pattern: leftleft

Airport Ownership and Management from official FAA records

Ownership: Privately-owned
Owner: MICHAEL LINDEN & NICHOLAS PARVELLO
5938 PAGE ROAD
ROCKFORD, IL 61101
Phone 815-985-4120
Manager: MICHAEL LINDEN
5938 PAGE ROAD
ROCKFORD, IL 61101
Phone 815-985-4120

Airport Operational Statistics

Aircraft based on the field: 2
Single engine airplanes: 2
    

Additional Remarks

OWNER DESIRES ARPT NOT BE CHARTED.
FOR CD CTC CHICAGO ARTCC AT 630-906-8921.

Instrument Procedures

There are no published instrument procedures at LL78.

Some nearby airports with instrument procedures:

KRFD - Chicago/Rockford International Airport (7 nm S)
44C - Beloit Airport (14 nm NE)
C77 - Poplar Grove Airport (14 nm E)
KJVL - Southern Wisconsin Regional Airport (19 nm N)
KFEP - Albertus Airport (20 nm W)
 
Loc | Ops | Rwys | IFR | FBO | Links
Com | Nav | Svcs | Stats | Notes
Area around LL78 (LZ Fairwinds Airport)
 
Road maps at: MapQuest Bing Google
 
Aerial photo
No photo
 
Sectional chart

 
Airport distance calculator
Flying to LZ Fairwinds Airport? Find the distance to fly.

From to LL78

Sunrise and sunset
Times for 07-Dec-2022
 Local
(UTC-6)
 Zulu
(UTC)
Morning civil twilight06:4112:41
Sunrise07:1313:13
Sunset16:2322:23
Evening civil twilight16:5522:55

Current date and time
Zulu (UTC)  07-Dec-2022 13:39:22
Local (UTC-6)  07-Dec-2022 07:39:22
 
METAR
KRFD 
7nm S 
071254Z 00000KT 5SM BR OVC013 01/M01 A3021 RMK AO2 SLP237 T00111006
KJVL 
19nm N 
071245Z 00000KT 1/4SM FZFG OVC001 M01/M01 A3018
KFEP 
20nm W 
071315Z AUTO 00000KT 7SM OVC013 01/01 A3020 RMK AO2 T00100008
TAF
KRFD 
7nm S 
071120Z 0712/0812 VRB03KT 6SM BR OVC010 TEMPO 0712/0715 1SM BR OVC005 FM071800 31005KT P6SM BKN015 FM072100 35005KT P6SM BKN025 FM080100 01005KT P6SM SCT025 BKN100
KJVL 
19nm N 
071125Z 0712/0812 00000KT 1/4SM FZFG OVC002 FM071500 00000KT 3SM BR OVC011 FM071800 VRB03KT P6SM OVC013 FM072100 33006KT P6SM SCT020 FM080200 02005KT P6SM BKN025 FM080800 VRB03KT 3SM BR FEW009 BKN019
NOTAMs
Click for the latest NOTAMs
NOTAMs are issued by the DoD/FAA and will open in a separate window not controlled by AirNav.

 

 
 

Would you like to see your business listed on this page?

 If your business provides an interesting product or service to pilots, flight crews, aircraft, or users of the LZ Fairwinds Airport, you should consider listing it here.  To start the listing process, click on the button below
 
Add a business
 

Other Pages about LZ Fairwinds Airport

Update a link
 
Copyright © AirNav, LLC. All rights reserved. Privacy Policy  Contact